Location: Gandikunta
(16.3784°N, 80.8378°E)
Time: 01:22:41
(UTC+00:00)

Cosmos 2151 - Pass Details

Date: 19 May 2025
Orbit: 562 x 578 km, 82.5° (Epoch: 18 June)

Event Time Altitude Azimuth Distance (km) Brightness Sun altitude
Rises 14:28:01 0° 10° (N) 2,786 6.7 -19.7°
Reaches altitude 10° 14:30:25 10° 22° (NNE) 1,887 5.6 -20.2°
Enters shadow 14:32:43 24° 49° (NE) 1,201 4.3 -20.7°
